#timestamp,LO_Frequency,Hit 
1503082815.0,286047001.7,N
1503082815.9,286047001.7,N
1503082835.8,286047001.7,N
1503082855.6,286047005.5,P
1503082875.4,286047001.9,N
1503082895.3,286047002.2,N
1503082915.1,286047001.8,N
1503082916.0,286047001.8,N
1503082935.8,286047002.6,N
1503082955.7,286047001.5,N
1503082975.5,286047001.6,N
1503082995.3,286047003.9,P
1503083015.2,286047001.1,N
1503083035.9,286047000.5,N
1503083055.7,286047000.4,N
1503083075.6,286047001.4,N
1503083095.4,286047000.3,N
1503083115.2,286047000.8,N
1503083135.0,286047000.0,N
1503083135.9,286047000.0,N
1503083155.8,286047000.7,N
1503083175.6,286047000.6,N
1503083195.4,286047001.1,N
1503083215.3,286047000.0,N
1503083235.1,286047001.1,N
1503083255.8,286047000.8,N
1503083275.7,286047001.1,N
1503083295.5,286047000.3,N
1503083315.3,286047000.2,N
1503083335.2,286047002.2,N
1503083355.9,286047001.6,N
1503083375.7,286047004.4,P
1503083395.6,286047000.1,N
1503083415.4,286047001.9,N
1503083435.2,286047003.3,N
1503083455.1,286047004.4,N
1503083456.0,286047004.4,N
1503083475.8,286047003.3,N
1503083495.6,286047003.5,N
1503083515.5,286047003.9,N
1503083535.3,286047001.8,N
1503083555.1,286047002.3,N
1503083575.9,286047001.5,N
1503083595.7,286047004.1,N
1503083615.5,286047003.3,N
1503083635.4,286047005.9,P
1503083655.2,286047003.6,N
1503083675.0,286047003.4,N
1503083675.9,286047003.4,N
1503083695.1,286047001.3,N
1503083715.8,286047003.2,N
1503083735.7,286047003.2,N
1503083755.5,286047001.6,N
1503083775.3,286047002.6,N
1503083795.2,286047004.2,P
1503083815.0,286047002.8,P
1503083815.9,286047002.8,P
1503083835.7,286046999.7,N
1503083855.6,286047001.8,N
1503083875.4,286047002.7,N
1503083895.2,286047002.3,N
1503083915.1,286047000.5,N
1503083916.0,286047000.5,N
1503083935.8,286046999.0,N
1503083955.6,286046997.2,N
1503083975.5,286046996.6,N
1503083995.3,286046998.1,N
1503084015.1,286047000.9,N
1503084035.9,286046999.7,N
1503084055.7,286047000.1,N
1503084075.5,286047000.0,N
1503084095.4,286047000.2,N
1503084115.2,286047002.8,N
1503084135.0,286047000.3,N
1503084135.9,286047000.3,N
1503084155.8,286047001.0,N
1503084175.6,286046999.0,N
1503084195.4,286046997.2,N
1503084215.2,286046995.8,N
1503084235.1,286046995.7,N
1503084236.0,286046995.7,N
1503084255.8,286046997.5,N
1503084275.6,286046998.8,N
1503084295.5,286046998.4,N
1503084315.3,286046998.1,N
1503084335.1,286046998.1,N
1503084355.9,286047001.1,N
1503084375.7,286047000.7,N
1503084395.5,286046999.3,N
1503084415.4,286046998.2,N
1503084435.2,286046998.6,N
1503084455.0,286046998.5,N
1503084455.9,286046998.5,N
1503084475.8,286047000.9,N
1503084495.6,286046999.8,N
1503084515.4,286047000.6,N
1503084535.3,286047001.0,N
1503084555.1,286046998.6,N
1503084556.0,286046998.6,N
1503084575.8,286046998.4,N
1503084595.6,286046996.7,N
1503084615.5,286046998.7,N
1503084635.3,286047000.9,N
1503084655.1,286047002.6,N
1503084675.9,286047003.3,N
1503084695.7,286047003.6,N
1503084715.5,286047003.8,N
1503084735.4,286047001.6,N
1503084755.2,286047002.8,N
1503084775.1,286046999.7,N
1503084776.0,286046999.7,N
1503084795.8,286047002.7,N
1503084815.6,286047002.6,N
1503084835.5,286047003.1,N
1503084855.3,286047004.4,N
1503084875.1,286047003.4,N
1503084895.8,286047004.1,N
1503084915.7,286047001.6,N
1503084935.5,286047004.1,N
1503084955.3,286047004.3,N
1503084975.2,286047002.2,N
1503084995.9,286047004.0,N
1503085015.7,286047004.0,N
1503085035.6,286047004.1,N
1503085055.4,286047004.1,N
1503085075.2,286047002.1,N
1503085095.1,286047001.4,N
1503085096.0,286047001.4,N
1503085115.8,286047004.3,N
1503085135.6,286047005.6,N
1503085155.5,286047003.4,N
1503085175.3,286047005.4,P
1503085195.1,286047001.8,N
1503085215.9,286047001.7,N
1503085235.7,286047001.3,N
1503085255.5,286047003.5,N
1503085275.4,286047001.3,N
1503085295.2,286047001.7,N
1503085315.0,286047004.4,P
1503085315.9,286047004.4,P
1503085335.8,286046998.4,N
1503085355.6,286046999.4,N
1503085375.4,286046998.3,N
1503085395.3,286047001.1,N
1503085415.1,286046999.5,N
1503085416.0,286046999.5,N
1503085435.8,286047000.8,N
1503085455.7,286047000.5,N
1503085475.5,286047001.1,N
1503085495.3,286047001.2,N
1503085515.1,286046998.6,N
1503085535.9,286047000.9,N
1503085555.7,286047000.5,N
1503085575.5,286047000.7,N
1503085595.4,286046998.7,N
1503085615.2,286046998.7,N
1503085635.0,286046996.6,N
1503085635.9,286046996.6,N
1503085655.8,286046998.4,N
1503085675.6,286046998.6,N
1503085695.4,286046998.8,N
1503085715.3,286046998.9,N
1503085735.1,286046997.1,N
1503085736.0,286046997.1,N
1503085755.8,286046998.6,N
1503085775.7,286046999.9,N
1503085795.5,286047000.0,N
1503085815.3,286047000.9,N
1503085835.1,286047002.3,N
1503085855.9,286047000.3,N
1503085875.7,286047000.7,N
1503085895.5,286047000.8,N
1503085915.4,286047000.3,N
1503085935.2,286047002.5,N
1503085955.0,286047002.5,N
1503085955.9,286047002.5,N
1503085975.8,286047002.1,N
1503085995.6,286047004.2,N
1503086015.4,286047002.0,N
1503086035.3,286047002.0,N
1503086055.1,286047001.5,N
1503086056.0,286047001.5,N
1503086075.8,286047004.3,N
1503086095.7,286047002.1,N
1503086115.5,286047000.5,N
1503086135.3,286047000.8,N
1503086155.2,286047002.0,N
1503086175.9,286047001.3,N
1503086195.7,286047002.0,N
1503086215.6,286047000.0,N
1503086235.4,286047000.8,N
1503086255.2,286047000.5,N
1503086275.0,286047000.0,N
1503086276.0,286047000.0,N
1503086295.8,286046999.9,N
1503086315.6,286046999.9,N
1503086335.4,286047001.7,N
1503086355.3,286047003.2,N
1503086375.1,286047004.3,P
1503086395.8,286047003.8,N
